[[{"header":{"parameterUnit":"m.s-1","parameterCategory":1,"la1":30.2991,"la2":30.254,"lo1":-89.0895,"lo2":-89.0444,"dy":0.0017,"dx":0.0017,"nx":28,"ny":28,"refTime":"2024-06-16T21:00:00:Z","depth":0,"parameterNumber":2,"parameterNumberName":"U-component_of_WINDS"},"data":[0,0,0,0,0,0,0,0,0,0,0,0,0,0,0,0,0,0,0,0,0,0,0,0,0,0,0,0,0,0,0,0,0,0,0,0,0,0,0,0,0,0,0,0,0,0,0,0,0,0,0,0,0,0,0,0,0,0,-10.1391,-10.1393,0,-10.1541,-10.1543,-10.1545,-10.1449,-10.1445,-10.144,-10.1436,-10.1581,-10.1589,-10.1597,0,0,0,0,0,0,0,0,0,0,0,0,0,-10.1016,-10.1024,-10.1391,-10.1393,-10.1395,-10.1541,-10.1543,-10.1545,-10.145,-10.1444,-10.1439,-10.1434,-10.1579,-10.1588,-10.1598,0,0,0,0,0,0,0,0,0,0,0,0,0,-10.1174,-10.1026,-10.1391,-10.1365,-10.1364,-10.1541,-10.1543,-10.1546,-10.1451,-10.1444,-10.1438,-10.1431,-10.1576,-10.1587,-10.1599,-10.1806,0,0,-10.1636,-10.1641,0,0,0,0,0,0,0,0,-10.1165,-10.1188,-10.1367,-10.1367,-10.1367,-10.147,-10.1464,-10.1633,-10.1453,-10.1418,-10.1436,-10.1428,-10.1549,-10.1563,-10.1605,-10.1813,-10.1819,-10.1637,-10.1644,-10.1649,-10.1653,0,0,0,0,0,0,0,-10.1154,-10.1181,-10.145,-10.137,-10.137,-10.1344,-10.1359,-10.1496,-10.1519,-10.142,-10.1414,-10.1433,-10.1548,-10.1594,-10.1608,-10.1821,-10.1636,-10.1647,-10.1654,-10.1659,-10.2207,-10.2214,0,0,0,0,0,0,-10.1146,-10.1172,-10.1445,-10.1455,-10.1248,-10.1357,-10.1373,-10.1443,-10.1517,-10.1522,-10.1439,-10.1428,-10.1577,-10.1594,-10.1613,-10.1859,-10.1649,-10.166,-10.1667,-10.22,-10.2209,-10.2217,0,0,0,0,0,0,-10.1139,-10.1172,-10.1439,-10.1312,-10.1344,-10.137,-10.1449,-10.145,-10.1496,-10.1531,-10.1534,-10.1482,-10.1572,-10.1596,-10.176,-10.1863,-10.1666,-10.1677,-10.2191,-10.2203,-10.2213,-10.2354,0,0,0,0,0,0,-10.1128,-10.117,-10.1249,-10.1315,-10.1351,-10.1586,-10.1456,-10.1458,-10.1518,-10.1506,-10.1573,-10.1577,-10.1569,-10.1742,-10.1772,-10.1876,-10.1686,-10.2182,-10.2196,-10.2209,-10.2341,-10.2369,-10.2393,0,0,0,0,0,-10.1115,-10.1281,-10.1254,-10.1287,-10.1452,-10.1592,-10.1612,-10.1602,-10.1527,-10.1606,-10.163,-10.1575,-10.1849,-10.176,-10.1792,-10.1901,-10.2175,-10.2192,-10.2208,-10.2329,-10.2363,-10.2393,0,0,0,0,0,0,-10.1223,-10.1289,-10.1259,-10.1452,-10.1518,-10.1575,-10.1675,-10.1639,-10.1724,-10.1709,-10.169,-10.1706,-10.1877,-10.1906,-10.1806,-10.2106,-10.2,-10.2023,-10.208,-10.2113,-10.2139,-10.2126,-10.1696,0,0,0,0,0,-10.127,-10.1381,-10.1431,-10.1596,-10.1631,-10.1649,-10.1708,-10.1696,-10.1761,-10.1787,-10.1822,-10.1886,-10.1986,-10.2052,-10.2146,-10.2347,-10.2359,-10.2438,-10.2464,-10.2486,-10.2505,-10.2612,-10.2648,-10.2271,-10.2271,-10.2271,0,0,-10.1366,-10.1416,-10.1486,-10.1619,-10.1668,-10.1781,-10.1672,-10.1795,-10.1877,-10.1805,-10.1962,-10.1991,-10.2061,-10.2244,-10.2326,-10.2273,-10.2613,-10.2507,-10.2524,-10.2531,-10.2633,-10.2669,-10.27,-10.2283,-10.2281,-10.2279,0,0,-10.1598,-10.1649,-10.1791,-10.1845,-10.1922,-10.1934,-10.1969,-10.2034,-10.2051,-10.2209,-10.2158,-10.2256,-10.2429,-10.2481,-10.253,-10.2789,-10.2741,-10.2821,-10.2956,-10.3061,-10.309,-10.3117,-10.3206,-10.3239,-10.2841,-10.2841,-10.2841,0,-10.1706,-10.1876,-10.1868,-10.1997,-10.2056,-10.2002,-10.2145,-10.2196,-10.23,-10.2341,-10.2282,-10.25,-10.2544,-10.2738,-10.2802,-10.2845,-10.2882,-10.2809,-10.3088,-10.3114,-10.3138,-10.3223,-10.3257,-10.285,-10.2849,-10.2848,-10.2847,0,-10.2005,-10.2124,-10.223,-10.2335,-10.2407,-10.2542,-10.2553,-10.2627,-10.261,-10.2628,-10.279,-10.2841,-10.2945,-10.2992,-10.2974,-10.3184,-10.3149,-10.309,-10.2981,-10.3183,-10.3262,-10.3295,-10.2862,-10.2859,-10.2857,-10.2854,0,0,-10.2302,-10.2406,-10.2445,-10.2492,-10.2577,-10.2667,-10.2801,-10.2906,-10.2969,-10.3044,-10.3154,-10.3305,-10.3252,-10.3308,-10.3297,-10.339,-10.3589,-10.3319,-10.332,-10.3364,-10.3822,-10.3863,-10.3901,-10.3561,-10.3568,-10.3573,-10.3815,0,-10.2537,-10.2772,-10.2771,-10.2987,-10.3096,-10.3049,-10.3165,-10.3229,-10.325,-10.3344,-10.3367,-10.3473,-10.3396,-10.343,-10.3521,-10.3546,-10.368,-10.3529,-10.3659,-10.3664,-10.3638,-10.3943,-10.3986,-10.4212,-10.3847,-10.3852,-10.3856,0,-10.284,-10.2929,-10.3157,-10.3228,-10.3274,-10.3378,-10.3476,-10.3568,-10.364,-10.3649,-10.3715,-10.3691,-10.3825,-10.3718,-10.3901,-10.3799,-10.3853,-10.3874,-10.3883,-10.389,-10.3768,-10.3955,-10.4284,-10.4316,-10.3905,-10.3901,-10.3898,0,-10.303,-10.3208,-10.3367,-10.341,-10.3497,-10.3572,-10.3611,-10.3677,-10.3741,-10.3827,-10.3868,-10.3967,-10.402,-10.4097,-10.41,-10.4022,-10.4285,-10.4178,-10.4293,-10.4293,-10.4346,-10.4341,-10.4684,-10.4389,-10.4389,-10.4388,-10.4387,0,-10.3289,-10.343,-10.3454,-10.3551,-10.3708,-10.3706,-10.386,-10.3893,-10.3953,-10.4054,-10.4021,-10.4116,-10.4117,-10.4214,-10.4218,-10.4369,-10.4394,-10.4403,-10.4401,-10.4403,-10.4402,-10.4434,-10.4417,-10.4397,-10.4395,-10.4393,-10.4392,0,-10.3525,-10.3548,-10.3718,-10.3789,-10.3811,-10.3922,-10.3982,-10.4074,-10.4095,-10.4225,-10.4255,-10.4287,-10.44,-10.4413,-10.4544,-10.4546,-10.4727,-10.4711,-10.4704,-10.4699,-10.4813,-10.4801,-10.5184,-10.5234,-10.4911,-10.4914,-10.4916,0,-10.3686,-10.3794,-10.3879,-10.3946,-10.3991,-10.41,-10.4167,-10.4171,-10.4241,-10.4334,-10.4415,-10.4527,-10.4615,-10.4799,-10.4831,-10.4932,-10.4915,-10.5044,-10.4929,-10.4929,-10.4913,-10.4905,-10.4915,-10.5063,-10.5067,-10.507,-10.5072,0,-10.397,-10.3977,-10.4075,-10.418,-10.4262,-10.4343,-10.442,-10.4476,-10.449,-10.4571,-10.4689,-10.4758,-10.4895,-10.5005,-10.5106,-10.5144,-10.511,-10.5109,-10.514,-10.5141,-10.5131,-10.5135,-10.4759,-10.5098,-10.5096,-10.5094,-10.5092,-10.5091,-10.417,-10.4264,-10.4339,-10.4451,-10.4511,-10.4584,-10.4675,-10.471,-10.4809,-10.4922,-10.4919,-10.5048,-10.5119,-10.5251,-10.5298,-10.5398,-10.5354,-10.5401,-10.5411,-10.5422,-10.5432,-10.512,-10.5416,-10.5416,-10.5415,-10.5414,-10.5414,0,-10.4449,-10.4496,-10.46,-10.471,-10.4799,-10.4766,-10.4849,-10.4924,-10.5039,-10.5111,-10.52,-10.5336,-10.5444,-10.5489,-10.5594,-10.5665,-10.5652,-10.5692,-10.5684,-10.5694,-10.5466,-10.5426,-10.5701,-10.5701,-10.5701,-10.5701,-10.5701,-10.5701,-10.4603,-10.476,-10.4777,-10.4963,-10.5009,-10.5138,-10.5189,-10.5256,-10.5313,-10.5467,-10.5558,-10.5588,-10.5648,-10.5759,-10.5856,-10.5866,-10.5905,-10.5951,-10.5954,-10.5739,-10.571,-10.5682,-10.5644,-10.5961,-10.5961,-10.6173,-10.6175,-10.6177]},{"header":{"parameterUnit":"m.s-1","parameterCategory":1,"la1":30.2991,"la2":30.254,"lo1":-89.0895,"lo2":-89.0444,"dy":0.0017,"dx":0.0017,"nx":28,"ny":28,"refTime":"2024-06-16T21:00:00:Z","depth":0,"parameterNumber":3,"parameterNumberName":"V-component_of_WINDS"},"data":[0,0,0,0,0,0,0,0,0,0,0,0,0,0,0,0,0,0,0,0,0,0,0,0,0,0,0,0,0,0,0,0,0,0,0,0,0,0,0,0,0,0,0,0,0,0,0,0,0,0,0,0,0,0,0,0,0,0,1.3182,1.3184,0,1.332,1.3321,1.3323,1.3413,1.3413,1.3414,1.3414,1.3555,1.3558,1.3561,0,0,0,0,0,0,0,0,0,0,0,0,0,1.2998,1.3001,1.3182,1.3184,1.3186,1.332,1.3322,1.3323,1.3412,1.3413,1.3414,1.3414,1.3554,1.3558,1.3561,0,0,0,0,0,0,0,0,0,0,0,0,0,1.3101,1.3002,1.3182,1.3246,1.3253,1.3319,1.3322,1.3324,1.3412,1.3413,1.3414,1.3415,1.3552,1.3557,1.3562,1.3575,0,0,1.3577,1.3579,0,0,0,0,0,0,0,0,1.3095,1.3108,1.3235,1.3242,1.325,1.335,1.3308,1.3408,1.3412,1.3352,1.3414,1.3415,1.3486,1.3496,1.352,1.3581,1.3587,1.3577,1.358,1.3582,1.3583,0,0,0,0,0,0,0,1.3088,1.3102,1.3237,1.3237,1.3246,1.3269,1.3284,1.3328,1.3412,1.3357,1.3364,1.3379,1.349,1.3515,1.3524,1.3589,1.3577,1.3581,1.3584,1.3586,1.3671,1.367,0,0,0,0,0,0,1.3071,1.3096,1.3232,1.3241,1.3173,1.3271,1.3289,1.3317,1.3412,1.3428,1.3378,1.3383,1.3507,1.3518,1.3529,1.3553,1.3582,1.3587,1.3589,1.3672,1.3671,1.367,0,0,0,0,0,0,1.3066,1.3082,1.3227,1.317,1.3191,1.3274,1.3305,1.3319,1.3345,1.3428,1.3444,1.3388,1.3508,1.3523,1.3564,1.3559,1.3589,1.3593,1.3672,1.3671,1.3671,1.3598,0,0,0,0,0,0,1.3061,1.308,1.3085,1.317,1.3193,1.3258,1.3304,1.3321,1.3353,1.336,1.3442,1.3456,1.351,1.3556,1.3568,1.3566,1.3597,1.3673,1.3672,1.3671,1.3601,1.3595,1.3589,0,0,0,0,0,1.3054,1.3058,1.3085,1.3101,1.3201,1.3257,1.3271,1.3332,1.3352,1.3358,1.3413,1.3453,1.3557,1.3559,1.3574,1.3573,1.3674,1.3672,1.3671,1.3604,1.3596,1.3589,0,0,0,0,0,0,1.297,1.307,1.3101,1.3133,1.3186,1.3272,1.3282,1.3321,1.337,1.3375,1.3449,1.3467,1.3501,1.3541,1.3541,1.3592,1.3621,1.3622,1.3564,1.3558,1.3552,1.3542,1.3601,0,0,0,0,0,1.2955,1.2992,1.3078,1.3098,1.3123,1.3198,1.3224,1.3267,1.3325,1.3348,1.3405,1.346,1.3506,1.3534,1.358,1.3607,1.3628,1.3614,1.3608,1.3603,1.3603,1.3624,1.3619,1.3666,1.3666,1.3666,0,0,1.2925,1.2984,1.3003,1.3082,1.3129,1.3166,1.3216,1.3252,1.3281,1.3354,1.3397,1.344,1.3507,1.3541,1.356,1.3576,1.3595,1.3601,1.3596,1.36,1.3622,1.3617,1.3613,1.3665,1.3665,1.3665,0,0,1.2889,1.2937,1.296,1.3006,1.3076,1.3126,1.3131,1.3213,1.3245,1.3289,1.3345,1.338,1.3456,1.3502,1.3535,1.352,1.356,1.3532,1.3501,1.352,1.3516,1.3514,1.351,1.3507,1.3533,1.3532,1.3532,0,1.2843,1.2901,1.2967,1.3002,1.3036,1.3104,1.3129,1.317,1.3251,1.3273,1.3291,1.339,1.3439,1.3487,1.3483,1.3507,1.3517,1.3524,1.3511,1.3509,1.3508,1.3505,1.3503,1.3529,1.3529,1.353,1.353,0,1.2842,1.2881,1.2892,1.297,1.3005,1.3034,1.3106,1.3134,1.3174,1.3223,1.3268,1.333,1.3391,1.3406,1.3445,1.346,1.3468,1.3497,1.3528,1.3499,1.3498,1.3497,1.3524,1.3525,1.3526,1.3527,0,0,1.2756,1.2872,1.2874,1.2912,1.2995,1.3027,1.306,1.3121,1.3144,1.3198,1.3229,1.3293,1.3322,1.3359,1.3405,1.3421,1.3407,1.3449,1.3452,1.344,1.343,1.3408,1.3406,1.3435,1.3435,1.3435,1.3425,0,1.2734,1.2798,1.2859,1.2901,1.2939,1.3006,1.3035,1.309,1.3136,1.3177,1.3229,1.3273,1.3306,1.333,1.3349,1.3405,1.3407,1.3406,1.3465,1.3466,1.3447,1.3405,1.3382,1.337,1.3425,1.3425,1.3425,0,1.2717,1.2769,1.2815,1.2897,1.2915,1.294,1.3002,1.3039,1.3103,1.3136,1.3179,1.3228,1.3268,1.3293,1.335,1.3349,1.3377,1.3408,1.3409,1.3418,1.3444,1.3414,1.3368,1.3366,1.3425,1.3425,1.3425,0,1.2652,1.2734,1.2773,1.2802,1.2898,1.2914,1.2955,1.302,1.3053,1.3107,1.313,1.3187,1.3219,1.3263,1.3327,1.3339,1.3377,1.3408,1.3407,1.3406,1.3413,1.3412,1.3371,1.3428,1.3428,1.3428,1.3428,0,1.2622,1.2648,1.2745,1.2769,1.2801,1.2871,1.2901,1.2948,1.3005,1.304,1.3101,1.3132,1.3214,1.3255,1.3305,1.3346,1.3359,1.3388,1.3401,1.3383,1.338,1.3403,1.3406,1.3428,1.3428,1.3428,1.3428,0,1.2556,1.2621,1.2668,1.2756,1.2778,1.2798,1.2873,1.29,1.295,1.2994,1.3008,1.3088,1.3141,1.3208,1.3281,1.3315,1.3351,1.337,1.3329,1.3337,1.3334,1.3333,1.3308,1.3309,1.3363,1.3362,1.3362,0,1.2533,1.2554,1.2644,1.2672,1.2711,1.2755,1.279,1.2861,1.2895,1.2971,1.2988,1.3046,1.3095,1.3176,1.3241,1.3299,1.3321,1.3308,1.333,1.3312,1.3323,1.3321,1.3325,1.3302,1.3301,1.3301,1.33,0,1.2485,1.2518,1.2565,1.2625,1.2665,1.2715,1.2768,1.2787,1.287,1.2905,1.296,1.2998,1.3074,1.3131,1.3197,1.324,1.3284,1.3293,1.3296,1.3279,1.3255,1.3269,1.3316,1.3293,1.3294,1.3294,1.3295,1.3295,1.2442,1.2465,1.2532,1.2584,1.2632,1.268,1.271,1.2765,1.2812,1.288,1.2919,1.2973,1.3039,1.3132,1.3174,1.3218,1.3234,1.3238,1.324,1.324,1.3235,1.3247,1.323,1.323,1.323,1.3231,1.3231,0,1.2399,1.2447,1.2493,1.2566,1.2607,1.2645,1.2707,1.2739,1.2785,1.2843,1.2891,1.2955,1.3011,1.3081,1.3142,1.3164,1.3186,1.3178,1.3178,1.3187,1.3216,1.3208,1.3159,1.3159,1.3159,1.3159,1.3159,1.3159,1.2382,1.2424,1.2465,1.2532,1.2579,1.2633,1.2665,1.271,1.2757,1.2826,1.2873,1.2918,1.2982,1.3048,1.3102,1.3121,1.3142,1.3127,1.3153,1.3178,1.3185,1.3191,1.3184,1.3131,1.3131,1.3121,1.3121,1.3121]}]]